This is the latest recevied weather packets stored in our database for station/object KB3AWQ. If no packets are shown the sender has not sent any weather packets the latest 10 day(s).
| Time | Temp. | Humidity | Pressure | Rain* | Wind** | Luminosity | Snow |
|---|---|---|---|---|---|---|---|
| 1787930667 | 26.11° C | 75% | 1019.1 hPa | 0 mm | - | 138 W/m² | - |
| 1787930366 | 26.11° C | 73% | 1019.1 hPa | 0 mm | - | 902 W/m² | - |
| 1787930067 | 26.11° C | 74% | 1019.1 hPa | 0 mm | - | 891 W/m² | - |
| 1787929767 | 26.11° C | 76% | 1019.2 hPa | 0 mm | - | 802 W/m² | - |
| 1787929467 | 25.56° C | 76% | 1019.2 hPa | 0 mm | - | 665 W/m² | - |
| 1787929166 | 25.56° C | 75% | 1019.2 hPa | 0 mm | - | 790 W/m² | - |
| 1787928867 | 25.56° C | 78% | 1019.2 hPa | 0 mm | - | 779 W/m² | - |
| 1787928566 | 25.56° C | 79% | 1019.1 hPa | 0 mm | - | 407 W/m² | - |
| 1787928266 | 26.11° C | 76% | 1019 hPa | 0 mm | - | 761 W/m² | - |
| 1787927967 | 26.11° C | 78% | 1019 hPa | 0 mm | - | 198 W/m² | - |
| 1787927667 | 25.56° C | 82% | 1018.9 hPa | 0 mm | - | 717 W/m² | - |
| 1787927366 | 25.56° C | 80% | 1018.8 hPa | 0 mm | - | 684 W/m² | - |
| 1787927066 | 25.56° C | 80% | 1018.7 hPa | 0 mm | - | 671 W/m² | - |
| 1787926768 | 25° C | 81% | 1018.7 hPa | 0 mm | - | 663 W/m² | - |
| 1787926467 | 24.44° C | 85% | 1018.6 hPa | 0 mm | - | 654 W/m² | - |
| 1787926167 | 24.44° C | 87% | 1018.5 hPa | 0 mm | - | 611 W/m² | - |
| 1787925866 | 23.89° C | 86% | 1018.5 hPa | 0 mm | - | 596 W/m² | - |
| 1787925566 | 23.89° C | 88% | 1018.5 hPa | 0 mm | - | 584 W/m² | - |
| 1787925266 | 23.33° C | 88% | 1018.4 hPa | 0 mm | - | 560 W/m² | - |
| 1787924967 | 23.33° C | 91% | 1018.4 hPa | 0 mm | - | 550 W/m² | - |
| 1787924668 | 23.33° C | 92% | 1018.4 hPa | 0 mm | - | 531 W/m² | - |
| 1787924366 | 22.78° C | 91% | 1018.4 hPa | 0 mm | - | 512 W/m² | - |
| 1787924067 | 22.22° C | 92% | 1018.3 hPa | 0 mm | - | 492 W/m² | - |
| 1787923766 | 22.22° C | 94% | 1018.2 hPa | 0 mm | - | 478 W/m² | - |
| 1787923467 | 22.78° C | 93% | 1018.3 hPa | 0 mm | - | 501 W/m² | - |
* Rain latest hour (hover to see other rain measurements)
** Current wind speed in m/s (hover to see current wind gust speed)